Location: Carriage Mobile Home Estates
(33.8045°N, 117.8545°W)
Time: 06:59:18
(UTC+00:00)

Daily predictions for brighter satellites

Satellite Brightness Start Highest point End
(mag) Time Altitude Azimuth Time Altitude Azimuth Time Altitude Azimuth
OE (NEXTSAT) 4.1 12:02:55 11° SW 12:06:03 89° SE 12:09:20 10° NE
Cosmos 1513 Rocket 4.4 12:02:44 10° NNW 12:08:45 69° W 12:14:46 10° S
Envisat 3.6 12:05:59 10° NNE 12:11:00 61° E 12:16:01 10° S
ALOS 3.5 12:08:28 10° NNW 12:12:14 25° WNW 12:16:00 10° SW
Cosmos 1633 Rocket 3.8 12:09:06 10° S 12:13:20 55° E 12:17:35 10° NNE
H-2A R/B 4.1 12:10:08 10° NNE 12:13:38 39° E 12:17:09 10° S
